Weather History for Syracuse, NY

Change the Weather History Date:

Tuesday, July 2, 2013

  Actual Average Record
Temperature  
Mean Temperature 76 °F 70 °F  
Max Temperature 84 °F 81 °F 100 °F (1931)
Min Temperature 67 °F 60 °F 45 °F (1943)
Degree Days  
Heating Degree Days 0 1  
Month to date heating degree days 0 2  
Since 1 June heating degree days 61 63  
Since 1 July heating degree days 0 2  
Cooling Degree Days 11 6  
Month to date cooling degree days 16 12  
Year to date cooling degree days 192 155  
Since 1 June cooling degree days 140 125  
Growing Degree Days 25 (Base 50)    
Moisture  
Dew Point 69 °F    
Average Humidity 87    
Maximum Humidity 100    
Minimum Humidity 74    
Precipitation  
Precipitation 0.02 in 0.12 in 2.63 in (1915)
Month to date precipitation 0.34 0.24  
Year to date precipitation 21.08 17.48  
Snow  
Snow 0.00 in 0.00 in 0.00 in (2002)
Month to date snowfall 0.0 0.0  
Since 1 June snowfall 0.0 0.0  
Since 1 July snowfall 0.0 0.0  
Snow Depth -    
Sea Level Pressure  
Sea Level Pressure 30.03 in    
Wind  
Wind Speed 3 mph (NNE)    
Max Wind Speed 9 mph    
Max Gust Speed 12 mph    
Visibility 7 miles    
Events Fog , Rain    
T = Trace of Precipitation, MM = Missing Value Source: NWS Daily Summary

Daily Weather History Graph

Daily Weather History Graph

Search for Another Location

Airport:

Trip Planner

Search our weather history database for the weather conditions in past years. The results will help you decide how hot, cold, wet, or windy it might be!

Date:

Astronomy

Jul. 02, 2013 Rise Set
Actual Time 5:29 AM EDT 8:47 PM EDT
Civil Twilight 4:54 AM EDT 9:22 PM EDT
Nautical Twilight 4:08 AM EDT 10:08 PM EDT
Astronomical Twilight 3:12 AM EDT 11:04 PM EDT
Moon 1:35 AM EDT (7/2) 3:55 PM EDT (7/2)
Length of Visible Light 16h 28m
Length of Day
15h 18m
Waning Crescent, 26% of the Moon is Illuminated
Jul 2
Waning Crescent
Jul 8
New
Jul 15
First Quarter
Jul 22
Full
Jul 29
Last Quarter

Hourly Weather History & Observations

Time (EDT) Temp. Heat Index Dew Point Humidity Pressure Visibility Wind Dir Wind Speed Gust Speed Precip Events Conditions
12:54 AM 68.0 °F - 66.0 °F 93% 29.99 in 4.0 mi West 5.8 mph - N/A   Overcast
1:09 AM 68.0 °F - 66.2 °F 94% 30.00 in 4.0 mi West 3.5 mph - N/A   Overcast
1:54 AM 68.0 °F - 66.0 °F 93% 29.99 in 5.0 mi Calm Calm - N/A   Overcast
2:54 AM 68.0 °F - 66.0 °F 93% 30.00 in 4.0 mi West 3.5 mph - N/A   Overcast
3:54 AM 68.0 °F - 66.0 °F 93% 30.00 in 3.0 mi West 3.5 mph - 0.00 in   Overcast
4:54 AM 68.0 °F - 66.0 °F 93% 30.01 in 2.5 mi Calm Calm - N/A   Overcast
5:54 AM 66.9 °F - 66.0 °F 97% 30.01 in 2.5 mi Calm Calm - N/A   Overcast
6:23 AM 66.2 °F - 66.2 °F 100% 30.03 in 1.5 mi Calm Calm - N/A   Overcast
6:40 AM 68.0 °F - 66.2 °F 94% 30.04 in 0.8 mi Calm Calm - N/A   Overcast
6:54 AM 68.0 °F - 66.0 °F 93% 30.02 in 0.5 mi ENE 3.5 mph - N/A Fog Fog
7:35 AM 68.0 °F - 66.2 °F 94% 30.04 in 1.2 mi Calm Calm - N/A   Overcast
7:54 AM 69.1 °F - 66.9 °F 93% 30.02 in 1.5 mi East 3.5 mph - N/A   Overcast
8:03 AM 69.8 °F - 68.0 °F 94% 30.03 in 2.0 mi ENE 3.5 mph - N/A   Overcast
8:11 AM 69.8 °F - 68.0 °F 94% 30.04 in 3.0 mi Calm Calm - N/A   Overcast
8:35 AM 71.6 °F - 68.0 °F 88% 30.04 in 4.0 mi NE 3.5 mph - N/A   Overcast
8:46 AM 71.6 °F - 69.8 °F 94% 30.05 in 6.0 mi Calm Calm - N/A   Mostly Cloudy
8:48 AM 73.4 °F - 68.0 °F 83% 30.05 in 6.0 mi Calm Calm - N/A   Haze
8:54 AM 72.0 °F - 68.0 °F 87% 30.04 in 8.0 mi Calm Calm - N/A   Mostly Cloudy
9:31 AM 75.2 °F - 69.8 °F 83% 30.05 in 10.0 mi Variable 3.5 mph - N/A   Mostly Cloudy
10:02 AM 77.0 °F - 69.8 °F 78% 30.06 in 10.0 mi Calm Calm - N/A   Overcast
10:19 AM 77.0 °F - 69.8 °F 78% 30.05 in 10.0 mi Calm Calm - N/A   Overcast
10:54 AM 80.1 °F 83.6 °F 71.1 °F 74% 30.04 in 10.0 mi Calm Calm - N/A   Mostly Cloudy
11:04 AM 77.0 °F - 69.8 °F 78% 30.05 in 10.0 mi Calm Calm - N/A   Overcast
11:13 AM 77.0 °F - 69.8 °F 78% 30.05 in 5.0 mi SSW 3.5 mph - 0.00 in Rain Light Rain
11:31 AM 77.0 °F - 71.6 °F 83% 30.05 in 10.0 mi Calm Calm - 0.01 in Rain Light Rain
11:54 AM 78.1 °F - 71.1 °F 79% 30.04 in 10.0 mi Calm Calm - 0.01 in   Overcast
12:54 PM 77.0 °F - 71.1 °F 82% 30.04 in 9.0 mi ENE 5.8 mph - 0.00 in Rain Light Rain
1:54 PM 80.1 °F 83.6 °F 71.1 °F 74% 30.02 in 10.0 mi ENE 4.6 mph - 0.00 in Rain Light Rain
2:54 PM 82.0 °F 86.7 °F 72.0 °F 71% 30.02 in 10.0 mi ENE 3.5 mph - 0.01 in   Mostly Cloudy
3:54 PM 82.9 °F 88.8 °F 73.0 °F 72% 30.01 in 10.0 mi East 5.8 mph - N/A   Mostly Cloudy
4:54 PM 82.0 °F 87.4 °F 73.0 °F 74% 30.01 in 10.0 mi SE 6.9 mph - N/A   Overcast
5:54 PM 82.0 °F 87.9 °F 73.9 °F 76% 30.01 in 10.0 mi NNE 5.8 mph - N/A   Overcast
6:54 PM 80.1 °F 84.2 °F 73.0 °F 79% 30.02 in 10.0 mi North 6.9 mph - N/A   Overcast
7:09 PM 80.6 °F 85.4 °F 73.4 °F 79% 30.04 in 10.0 mi North 5.8 mph - N/A   Overcast
7:19 PM 78.8 °F - 73.4 °F 83% 30.04 in 10.0 mi North 6.9 mph - N/A   Overcast
7:54 PM 77.0 °F - 72.0 °F 84% 30.04 in 10.0 mi North 5.8 mph - N/A   Overcast
8:54 PM 73.9 °F - 70.0 °F 87% 30.06 in 10.0 mi WNW 5.8 mph - N/A   Mostly Cloudy
9:54 PM 73.0 °F - 69.1 °F 87% 30.08 in 10.0 mi Calm Calm - N/A   Overcast
10:54 PM 72.0 °F - 68.0 °F 87% 30.07 in 10.0 mi NNW 3.5 mph - N/A   Overcast
11:54 PM 71.1 °F - 66.9 °F 87% 30.07 in 10.0 mi NNW 3.5 mph - N/A   Overcast